Regional Weather Roundup
Issued by NWS

Home | Current Version | Previous Version | Text Only | Print | Product List | Glossary On
Versions: 1 2 3 4 5 6 7 8 9 10 11 12 13 14 15 16 17 18 19 20 21 22 23 24 25 26 27 28 29 30 31 32 33 34 35 36 37 38 39 40 41 42 43 44 45 46 47 48 49 50
000
ASUS44 KFWD 230010
RWRTX
NORTH TEXAS HOURLY WEATHER ROUNDUP
NATIONAL WEATHER SERVICE FORT WORTH TX
600 PM CST MON DEC 22 2014

NOTE: "FAIR" INDICATES FEW OR NO CLOUDS BELOW 12,000 FEET WITH NO
SIGNIFICANT WEATHER AND/OR OBSTRUCTIONS TO VISIBILITY.

TXZ118-119-230100-
DALLAS/FORT WORTH METROPLEX

CITY           SKY/WX    TMP DP  RH WIND       PRES   REMARKS
DFW AIRPORT    CLOUDY    57  44  62 NW7       29.62F
6HR MIN TEMP:  57; 6HR MAX TEMP:  65;

DALLAS LOVE    CLOUDY    58  45  62 N8        29.62S
6HR MIN TEMP:  58; 6HR MAX TEMP:  66;

FTW MEACHAM    CLOUDY    57  44  62 NW7       29.63R
6HR MIN TEMP:  57; 6HR MAX TEMP:  63;

DAL-EXECUTIVE  CLOUDY    58  45  62 NW10      29.62R
6HR MIN TEMP:  58; 6HR MAX TEMP:  68;

FTW-ALLIANCE   CLOUDY    56  43  61 NW7       29.63R
FTW-SPINKS     MOCLDY    57  43  58 NW13      29.65R
ARLINGTON      CLOUDY    59  42  53 NW9       29.62S
6HR MIN TEMP:  59; 6HR MAX TEMP:  67;

MESQUITE       CLEAR     57  46  67 NW5       29.62
LANCASTER      CLOUDY    56  45  65 NW7       29.63S
6HR MIN TEMP:  56; 6HR MAX TEMP:  66;

$$

TXZ091>094-102>105-117-120-121-131>134-230100-
NORTH CENTRAL TEXAS

CITY           SKY/WX    TMP DP  RH WIND       PRES   REMARKS
SHRMAN/DENISON CLOUDY    55  48  75 CALM      29.64R
6HR MIN TEMP:  55; 6HR MAX TEMP:  63;

GAINESVILLE    CLOUDY    54  43  66 W6        29.67R
6HR MIN TEMP:  54; 6HR MAX TEMP:  60;

BOWIE          CLOUDY    53  39  60 NW5       29.65R
6HR MIN TEMP:  53; 6HR MAX TEMP:  59;

BRIDGEPORT     CLOUDY    55  44  67 NW3       29.66S
6HR MIN TEMP:  55; 6HR MAX TEMP:  62;

DECATUR        CLOUDY    54  40  61 NW6       29.65S
6HR MIN TEMP:  54; 6HR MAX TEMP:  58;

DENTON         CLOUDY    54  44  69 NW6       29.62F
6HR MIN TEMP:  54; 6HR MAX TEMP:  63;

MCKINNEY       CLOUDY    57  46  66 NW8       29.63R
6HR MIN TEMP:  57; 6HR MAX TEMP:  64;

GREENVILLE     CLOUDY    59  45  58 NW5       29.62R
ROCKWALL       CLOUDY    58  46  66 NW7       29.61S
6HR MIN TEMP:  58; 6HR MAX TEMP:  67;

TERRELL        CLOUDY    60  46  59 NW8       29.63R
6HR MIN TEMP:  60; 6HR MAX TEMP:  70;

WAXAHACHIE     CLOUDY    57  46  66 NW8       29.64R
6HR MIN TEMP:  57; 6HR MAX TEMP:  67;

CLEBURNE       CLOUDY    57  43  58 NW8       29.65R
GRANBURY       CLOUDY    58  43  56 CALM      29.66R
6HR MIN TEMP:  58; 6HR MAX TEMP:  65;

$$

TXZ083>090-098>101-113>116-127>130-139>142-154-155-230100-
WESTERN NORTH TEXAS

CITY           SKY/WX    TMP DP  RH WIND       PRES   REMARKS
WICHITA FALLS  CLOUDY    55  37  50 CALM      29.65R
6HR MIN TEMP:  54; 6HR MAX TEMP:  63;

WF-KICKAPOO    CLOUDY    55  36  49 CALM      29.67S
6HR MIN TEMP:  55; 6HR MAX TEMP:  61;

VERNON         CLOUDY    53  30  42 NW5       29.68R
6HR MIN TEMP:  32; 6HR MAX TEMP:  63;

ABILENE        CLOUDY    57  36  45 N9        29.69R
6HR MIN TEMP:  57; 6HR MAX TEMP:  66;

ABILENE-DYESS  CLOUDY    57  36  45 N13       29.68R
6HR MIN TEMP:  57; 6HR MAX TEMP:  64;

BRECKENRIDGE   CLOUDY    58  36  43 N5        29.66S
6HR MIN TEMP:  58; 6HR MAX TEMP:  64;

GRAHAM         CLOUDY    55  40  57 CALM      29.64S
6HR MIN TEMP:  55; 6HR MAX TEMP:  61;

MINERAL WELLS  CLOUDY    55  42  61 NW5       29.64R
6HR MIN TEMP:  55; 6HR MAX TEMP:  64; 6HR PCP: TRACE;

STEPHENVILLE   CLOUDY    56  41  55 N6        29.68R
6HR MIN TEMP:  56; 6HR MAX TEMP:  65;

COMANCHE       CLOUDY    58  41  53 N9        29.67R
6HR MIN TEMP:  58; 6HR MAX TEMP:  66;

BROWNWOOD      CLOUDY    59  37  44 N6        29.67R
COLEMAN        CLOUDY    58  42  53 N8        29.68R
6HR MIN TEMP:  58; 6HR MAX TEMP:  67;

BRADY          CLEAR     59  39  47 N8        29.65R
$$

TXZ143>147-156>162-174-175-230100-
CENTRAL TEXAS

CITY           SKY/WX    TMP DP  RH WIND       PRES   REMARKS
WACO           CLOUDY    61  43  51 NW9       29.65R
6HR MIN TEMP:  60; 6HR MAX TEMP:  74;

WACO-MCGREGOR  CLOUDY    61  39  44 N8        29.65R
6HR MIN TEMP:  61; 6HR MAX TEMP:  73;

HILLSBORO      CLOUDY    58  44  59 N8        29.64R
6HR MIN TEMP:  58; 6HR MAX TEMP:  70;

CORSICANA      CLOUDY    60  43  53 NW7       29.63R
6HR MIN TEMP:  60; 6HR MAX TEMP:  72;

MEXIA          CLOUDY    62  42  49 W5        29.61R
6HR MIN TEMP:  62; 6HR MAX TEMP:  71;

HEARNE         CLOUDY    63  55  74 SW3       29.62S
6HR MIN TEMP:  63; 6HR MAX TEMP:  74;

CAMERON        CLOUDY    64  55  72 W3        29.63R
6HR MIN TEMP:  64; 6HR MAX TEMP:  74;

TEMPLE         CLOUDY    61  37  41 NW6       29.63R
6HR MIN TEMP:  61; 6HR MAX TEMP:  72;

KILLEEN        CLOUDY    59  41  49 N5        29.64R
6HR MIN TEMP:  59; 6HR MAX TEMP:  71;

KILLEEN-SKYLRK CLOUDY    63  37  39 NW3       29.63R
6HR MIN TEMP:  63; 6HR MAX TEMP:  73;

FORT HOOD      CLOUDY    59  41  51 N8        29.63R
6HR MIN TEMP:  58; 6HR MAX TEMP:  72;

GATESVILLE     CLOUDY    61  45  55 CALM      29.67R
HAMILTON       MOCLDY    59  40  49 N3        29.66R
6HR MIN TEMP:  58; 6HR MAX TEMP:  69;

$$

TXZ095>097-106>112-122>126-135>138-148>153-164>167-230100-
EAST TEXAS

CITY           SKY/WX    TMP DP  RH WIND       PRES   REMARKS
PARIS          CLOUDY    57  45  62 NW12      29.62R
6HR MIN TEMP:  57; 6HR MAX TEMP:  66;

SULPHUR SPRNGS CLOUDY    61  46  58 NW14      29.63R
6HR MIN TEMP:  61; 6HR MAX TEMP:  68;

MOUNT PLEASANT MOCLDY    62  46  54 W5        29.61R
6HR MIN TEMP:  62; 6HR MAX TEMP:  70;

MINEOLA        CLOUDY    63  43  48 W6        29.62R
TYLER          CLOUDY    63  43  48 NW7       29.60R
6HR MIN TEMP:  63; 6HR MAX TEMP:  71;

LONGVIEW       MOCLDY    61  50  67 SW5       29.59R
6HR MIN TEMP:  59; 6HR MAX TEMP:  71;

MARSHALL       CLOUDY    64  56  77 CALM      29.60R
6HR MIN TEMP:  64; 6HR MAX TEMP:  73;

ATHENS         CLOUDY    61  41  48 NW7       29.59R
PALESTINE      CLOUDY    65  51  61 SW3       29.61R
JACKSONVILLE   CLOUDY    64  51  61 SW3       29.61R
HENDERSON      CLOUDY    59  52  78 CALM      29.60R
6HR MIN TEMP:  59; 6HR MAX TEMP:  71;

NACOGDOCHES    MOCLDY    61  52  72 CALM      29.61R
6HR MIN TEMP:  61; 6HR MAX TEMP:  70;

LUFKIN         MOCLDY    65  55  70 S5        29.60R
6HR MIN TEMP:  65; 6HR MAX TEMP:  73;

$$

SUPPLEMENTAL OBSERVATIONS (CENTRAL)

CITY           SKY/WX    TMP DP  RH WIND       PRES   REMARKS
CADDO GRASSLND   N/A     55  43  62 NW2         N/A
PAT MAYSE LAKE   N/A     55  45  67 W6          N/A
GREENVILLE       N/A     57  45  62 NW6         N/A
CEDAR HILL       N/A     57  45  62 N3G13       N/A
PALESTINE        N/A     61  50  67 CALM        N/A
MCGREGOR         N/A     61  41  48 N6          N/A
TEMPLE           N/A     64  39  39 CALM        N/A
$$

SUPPLEMENTAL OBSERVATIONS (WEST)

CITY           SKY/WX    TMP DP  RH WIND       PRES   REMARKS
MILLERS CREEK    N/A     54  32  43 W5          N/A
POSSUM KINGDOM   N/A     55  39  54 W3          N/A
LBJ GRASSLAND    N/A     55  39  54 NW3         N/A
GRANBURY         N/A     57  41  54 NW5         N/A
HAMBY            N/A     55  34  44 N3          N/A
IVIE RESERVOIR   N/A     61  37  41 N7          N/A
COLORADO BEND    N/A     55  39  54 CALM        N/A
$$

SUPPLEMENTAL OBSERVATIONS (EAST)

CITY           SKY/WX    TMP DP  RH WIND       PRES   REMARKS


USA.gov is the U.S. government's official web portal to all federal, state and local government web resources and services.